Temperature
17 17 16 16 16 16 16 15 15 15 15 15 15 15 14 14 14 14 14 14 14 14 14 14 14 14 13 13 13 13 13 13 13 13 13 13 13 14 14 14 13 13 13
16 16 16 16 16 15 15 15 15 15 15 15 15 14 14 14 14 14 14 14 14 14 13 13 13 13 13 13 13 13 13 13 13 13 13 13 13 13 13 13 13 13 13
16 16 16 15 15 15 15 15 15 15 15 14 14 14 14 14 14 14 14 14 13 13 13 13 13 13 13 13 13 13 13 13 13 13 13 13 13 13 13 13 13 13 13
15 15 15 15 15 15 15 15 15 15 14 14 14 14 14 14 14 14 13 13 13 13 13 13 13 13 13 13 13 13 13 13 13 13 13 13 13 13 13 13 13 13 12
15 15 15 15 15 14 14 14 14 14 14 14 14 14 14 14 13 13 13 13 13 13 13 13 13 13 13 13 13 13 13 13 13 12 12 12 12 12 12 12 12 12 12
14 15 15 14 14 14 14 14 14 14 14 14 14 13 13 13 13 13 13 13 13 13 13 13 13 13 13 13 13 13 12 12 12 12 12 12 12 12 12 12 12 12 12
14 14 14 14 14 14 14 14 14 14 14 13 13 13 13 13 13 13 13 13 13 13 13 13 13 13 13 13 12 12 12 12 12 12 12 12 12 12 12 12 12 12 12
14 14 14 14 13 14 13 13 13 13 13 13 13 13 13 13 13 13 13 13 13 13 13 13 12 12 12 12 12 12 12 12 12 12 12 12 12 12 12 12 12 11 11
13 13 13 13 13 13 13 13 13 13 13 13 13 13 13 13 13 12 12 12 12 12 12 12 12 12 12 12 12 12 12 12 12 12 12 12 12 12 11 11 11 11 11
13 13 13 13 13 13 13 13 12 12 12 12 12 12 12 12 12 12 12 12 12 12 12 12 12 12 12 12 12 12 12 12 12 12 12 11 11 11 11 11 11 11 11
13 13 12 13 13 12 12 12 12 12 12 12 12 12 12 12 12 12 12 12 12 12 12 12 12 12 12 12 12 12 12 12 11 11 11 11 11 11 11 11 11 11 11
12 12 12 12 12 12 12 12 12 12 11 11 11 11 11 11 11 11 11 11 12 11 11 12 12 11 11 11 11 11 11 11 11 11 11 11 11 11 11 11 11 11 10
12 12 12 12 12 12 11 11 11 11 11 11 11 11 11 11 11 11 11 11 11 11 11 11 11 11 11 11 11 11 11 11 11 11 11 11 11 11 11 11 10 10 10
12 12 12 11 11 11 11 11 11 11 11 11 11 11 11 11 11 11 11 11 11 11 11 11 11 11 11 10 10 10 10 10 10 10 10 10 10 10 10 10 10 10 10
11 11 11 11 11 11 11 11 11 11 11 11 11 11 11 11 11 11 11 11 11 11 10 10 10 10 10 10 10 10 10 10 10 10 10 10 10 10 10 10 10 10 10
11 11 11 11 11 10 10 10 10 10 11 11 11 11 11 11 11 10 10 10 10 10 10 10 10 10 10 10 10 10 10 10 10 10 10 10 10 10 10 10 10 10 10
11 10 10 10 10 10 10 10 10 10 10 10 10 10 10 10 10 10 10 10 10 10 10 10 10 10 10 10 10 10 10 10 10 10 10 10 10 10 10 10 10 10 10
10 10 10 10 10 10 10 10 10 10 10 10 10 10 10 10 10 10 10 10 10 9 9 9 9 9 9 9 9 9 9 10 10 10 10 10 9 9 9 9 9 9 9
10 10 10 10 10 10 9 9 9 9 9 10 10 10 10 10 10 10 9 9 9 9 9 9 9 9 9 9 9 9 9 9 9 9 9 9 9 9 9 9 9 9 9
10 10 10 10 10 9 9 9 9 9 9 9 9 9 9 9 9 9 9 9 9 9 9 9 9 9 9 9 9 9 9 9 9 9 9 9 9 9 9 9 9 8 8
10 10 9 9 9 9 9 9 9 9 9 9 9 9 9 9 9 9 9 9 9 9 9 9 9 9 9 9 9 9 9 9 9 9 9 9 9 9 8 8 8 8 8
9 9 9 9 9 9 9 9 9 9 8 8 9 9 9 9 9 9 9 9 9 9 9 8 8 8 8 8 8 8 8 8 8 8 8 8 8 8 8 8 8 8 8
9 9 9 9 9 9 9 9 9 9 8 8 8 8 8 9 9 9 9 9 9 8 8 8 8 8 8 8 8 8 8 8 8 8 8 8 8 8 8 8 8 8 8
9 9 9 9 9 9 8 8 8 8 8 8 8 8 8 8 8 8 8 8 8 8 8 8 8 8 8 8 8 8 8 8 8 8 7 7 7 8 7 7 7 7 7
9 9 9 9 8 8 8 8 8 8 8 8 8 8 8 8 8 8 7 8 8 8 8 7 7 7 7 7 7 7 7 7 7 7 7 7 7 7 7 7 7 7 7
8 8 8 8 8 8 8 8 8 8 7 7 7 7 7 7 7 7 7 7 7 7 7 7 7 7 7 7 7 7 7 7 7 7 7 7 7 7 7 7 7 6 6
Wind_Speed
5 5 4 4 4 3 4 4 3 3 3 3 4 4 4 4 3 3 3 3 3 2 2 2 3 3 2 2 2 2 3 3 3 3 2 2 1 2 2 2 2 2 3
5 4 4 4 3 4 4 3 3 3 3 4 4 4 4 4 4 4 4 4 4 3 3 3 3 2 3 3 3 3 3 3 3 4 2 2 1 2 2 2 2 2 2
4 4 3 3 4 4 4 3 3 3 3 3 4 4 4 4 4 5 5 5 4 4 4 4 4 4 4 3 3 3 3 2 3 3 2 1 1 1 1 2 2 2 2
4 4 4 3 4 4 4 4 3 3 4 4 4 5 5 5 5 5 5 5 4 4 5 5 5 5 5 5 4 4 3 3 2 2 2 2 2 1 1 1 2 2 2
4 4 4 3 3 2 3 3 3 4 4 4 4 4 4 4 5 5 5 5 5 4 4 4 4 5 5 5 4 4 4 3 3 2 2 2 2 1 2 1 2 2 2
3 4 3 3 2 2 3 3 3 3 3 3 4 4 4 4 4 5 5 4 4 4 4 4 4 4 4 5 5 5 6 5 5 4 3 4 4 3 2 2 2 1 2
2 2 3 3 3 3 3 2 3 3 3 3 4 4 4 4 4 5 5 4 4 4 4 4 3 3 3 3 4 4 5 6 7 6 6 6 5 5 4 3 3 3 3
2 2 2 3 3 2 2 3 3 3 3 3 4 4 4 4 5 5 5 4 4 4 4 4 4 3 3 3 3 2 3 4 5 6 6 6 6 4 4 4 3 3 2
2 2 3 3 3 2 2 3 2 2 2 2 2 3 3 3 4 5 4 3 3 3 3 3 4 4 4 3 3 3 3 3 3 4 4 5 5 5 4 3 3 2 3
3 3 2 3 3 3 3 2 2 2 2 2 2 2 3 3 4 4 4 2 3 3 2 3 4 4 3 4 4 4 4 4 2 2 2 2 3 4 6 5 5 4 3
2 2 2 2 2 2 2 1 1 1 1 1 2 2 2 2 3 4 5 3 3 3 2 3 3 3 4 4 5 4 6 4 3 2 2 2 2 2 3 4 5 5 4
2 2 2 1 1 1 2 1 1 2 1 1 1 1 1 2 2 4 5 5 4 3 3 3 3 3 3 3 3 3 3 3 2 2 2 2 3 3 3 3 4 5 6
2 2 1 1 1 1 2 2 2 2 2 2 2 2 3 2 2 3 4 5 5 3 3 4 3 3 3 2 3 3 3 2 2 3 3 3 3 3 2 2 2 3 3
3 2 1 1 1 1 1 2 2 3 2 2 3 3 3 2 2 2 2 3 3 3 2 2 2 2 2 2 2 2 2 3 3 3 3 3 2 2 2 2 2 1 1
2 2 1 1 1 1 1 2 3 3 4 4 4 3 3 3 4 3 3 3 2 3 2 1 1 1 0 1 1 1 2 2 2 2 2 2 2 2 2 2 2 2 2
3 2 2 1 1 1 1 1 1 1 2 3 4 4 3 4 3 2 3 3 4 4 3 2 2 2 2 2 2 2 2 2 3 3 2 3 2 2 2 1 1 2 3
4 3 2 2 2 1 1 1 2 2 2 1 2 2 2 1 1 1 1 2 2 4 2 2 2 2 2 2 2 2 2 3 2 3 3 3 3 2 2 2 2 2 2
4 3 3 2 2 2 2 2 2 1 1 2 2 1 1 1 1 1 1 3 2 1 1 2 2 2 2 2 2 2 3 2 2 2 2 2 2 2 2 2 2 3 3
3 3 3 3 2 2 2 2 2 1 1 1 1 2 1 1 1 1 3 2 1 1 1 2 3 3 3 3 3 3 2 2 2 2 2 2 2 2 2 2 3 3 3
3 3 3 2 2 2 1 1 2 2 1 1 1 1 1 1 1 1 0 1 1 2 2 2 3 3 3 3 3 2 2 2 2 2 2 2 2 2 3 3 3 3 3
2 2 3 2 2 2 2 2 2 2 2 2 2 2 2 1 2 2 2 2 2 3 3 3 3 3 3 3 3 3 3 3 3 3 3 2 3 3 3 3 3 3 2
2 2 2 2 2 2 2 2 2 2 2 2 1 1 2 1 2 2 2 3 3 3 3 3 3 3 3 3 3 3 3 3 3 3 3 3 3 3 3 3 3 2 2
2 2 2 2 2 2 2 1 2 2 2 2 2 1 1 2 2 2 3 3 3 3 3 2 3 3 3 3 3 3 4 4 4 4 3 3 3 3 3 3 3 3 2
1 2 2 1 1 1 2 2 2 2 2 2 2 2 2 2 3 3 3 3 3 3 3 3 3 4 4 3 3 4 4 4 4 3 4 3 3 3 3 2 2 2 3
1 1 1 1 1 1 1 1 2 2 2 2 2 2 2 2 3 3 3 3 3 3 3 3 3 3 4 4 3 3 3 3 3 3 2 2 3 3 2 2 2 2 2
1 1 1 1 1 1 1 1 2 2 2 2 2 2 2 3 3 3 3 3 3 3 3 3 3 3 4 4 3 3 3 2 3 2 2 2 2 2 2 2 3 3 3
Wind_Direction
179 177 175 185 184 176 180 191 181 180 180 182 182 180 184 186 184 180 190 188 192 221 230 220 232 220 210 213 202 199 207 207 233 264 263 276 285 308 324 317 294 285 273
177 168 178 182 178 179 186 187 178 181 194 195 187 185 192 194 190 188 204 205 200 213 230 231 239 223 208 208 198 204 212 211 215 246 264 279 274 285 309 314 316 293 273
162 160 169 183 186 189 195 190 184 194 202 201 192 195 203 205 201 201 204 209 209 216 221 222 227 212 215 214 206 206 211 207 210 222 253 269 268 279 302 313 320 319 305
151 156 172 193 203 202 195 193 192 199 207 207 209 211 211 210 208 204 205 208 210 223 227 224 224 216 217 212 210 209 201 193 196 209 239 262 263 261 241 272 307 320 313
149 162 187 195 198 197 199 205 200 201 218 218 216 223 219 214 214 207 206 204 207 220 232 231 229 225 217 208 206 202 193 197 198 214 234 244 249 240 242 243 263 296 306
157 180 182 179 181 189 204 212 209 211 221 224 223 222 221 226 216 203 199 203 211 214 225 235 238 238 235 219 214 209 199 201 208 215 227 233 244 238 232 228 242 267 286
159 174 175 179 187 199 203 199 214 222 224 230 231 215 220 227 213 207 205 203 211 217 221 227 233 236 222 223 225 228 227 218 208 208 218 230 232 225 210 226 239 240 250
166 176 178 179 191 192 185 208 223 227 225 231 234 223 220 227 213 209 207 207 213 223 223 221 225 238 230 216 217 230 245 243 226 218 222 232 233 226 212 215 223 247 263
196 207 198 187 187 189 199 227 235 222 226 236 230 218 217 237 218 206 196 202 214 231 233 226 223 229 236 207 199 222 250 264 244 215 216 227 229 223 206 194 210 233 267
225 217 201 190 191 205 214 230 235 213 228 225 229 223 218 232 218 201 188 198 214 231 243 242 229 228 229 201 200 205 223 238 238 238 241 249 238 226 215 217 216 221 240
222 185 173 184 195 210 209 217 197 178 189 225 231 242 230 226 222 210 196 203 213 220 235 250 248 233 229 216 203 208 221 223 218 220 238 252 250 241 233 224 222 218 222
181 164 169 173 189 198 196 201 182 159 162 243 251 273 272 252 230 224 214 215 210 214 232 244 246 225 219 223 213 216 217 201 197 203 225 242 248 249 247 236 228 227 232
160 165 181 170 183 199 202 200 189 176 188 215 227 250 267 261 248 235 229 231 227 224 234 232 233 222 210 213 211 207 192 191 197 209 228 245 255 256 255 254 240 229 240
173 180 187 181 214 220 207 198 192 196 203 216 223 237 258 265 259 252 247 247 237 224 217 209 214 205 192 205 213 212 211 211 209 222 235 248 259 256 245 233 231 227 238
179 178 180 194 204 222 221 213 216 222 215 214 226 222 225 253 264 249 225 223 219 209 181 160 135 128 191 250 253 241 225 217 222 237 232 240 242 249 251 239 216 203 217
183 187 184 191 210 221 235 277 293 264 247 224 218 215 229 234 255 259 242 224 202 169 144 161 192 207 220 240 250 262 252 237 227 223 226 231 236 238 241 233 208 204 223
185 190 191 193 201 216 232 244 284 328 335 261 245 225 223 232 229 237 220 197 174 153 152 192 208 225 235 244 242 242 252 257 233 219 222 225 227 228 225 226 218 220 236
185 191 194 206 209 217 225 231 235 251 308 325 317 278 246 233 239 215 145 108 90 118 197 216 225 236 236 238 245 251 259 258 233 231 235 232 222 218 222 232 228 230 240
191 201 202 204 203 209 221 222 222 225 242 285 349 346 328 328 13 63 121 130 178 212 232 234 235 237 238 239 247 251 253 252 242 229 232 231 227 221 231 239 236 231 235
206 213 200 189 184 190 201 212 219 226 233 246 266 281 358 62 50 26 168 215 232 245 250 253 251 242 236 240 246 250 256 258 254 236 232 231 225 219 224 228 231 234 238
200 203 197 181 184 192 198 211 217 218 228 242 257 260 205 202 225 239 235 242 246 252 254 254 253 253 248 250 249 245 245 250 250 245 239 236 228 224 229 228 230 235 245
189 179 173 177 185 195 207 213 215 219 233 247 281 294 208 221 246 254 256 259 257 256 254 251 249 246 243 245 243 246 250 251 248 244 243 239 232 229 227 227 228 231 240
177 168 166 177 183 186 194 211 213 220 238 257 268 274 260 258 264 268 272 273 271 271 268 260 260 264 262 254 248 243 246 251 251 246 242 239 230 224 220 225 233 240 245
140 148 155 168 178 194 211 224 229 233 243 254 258 257 260 264 271 278 281 283 282 282 280 276 271 270 271 267 258 251 255 258 252 243 237 237 233 226 218 219 229 246 251
109 126 146 165 185 206 219 236 250 254 251 254 258 263 271 276 281 286 291 294 290 285 282 279 280 275 270 271 278 278 275 267 262 252 233 225 232 229 219 214 221 235 247
80 114 150 150 171 211 214 229 247 254 256 258 263 271 279 283 284 286 293 296 293 289 288 283 284 280 280 280 291 301 299 292 289 272 245 231 226 230 226 223 225 226 230
Height
1484 1486 1489 1491 1492 1494 1495 1497 1498 1500 1501 1502 1503 1504 1505 1506 1507 1508 1508 1509 1509 1510 1510 1510 1510 1511 1511 1511 1512 1512 1513 1513 1513 1513 1513 1514 1514 1514 1514 1513 1513 1513 1513
1482 1485 1487 1488 1490 1492 1493 1494 1496 1497 1498 1499 1501 1502 1502 1503 1505 1505 1506 1506 1507 1507 1507 1507 1507 1508 1508 1508 1509 1509 1510 1510 1510 1510 1510 1511 1511 1511 1511 1511 1511 1511 1511
1481 1483 1485 1487 1489 1490 1491 1492 1494 1495 1496 1497 1498 1498 1499 1501 1502 1502 1503 1504 1504 1504 1504 1504 1504 1504 1504 1505 1506 1506 1507 1507 1508 1508 1507 1508 1508 1508 1508 1508 1508 1509 1509
1479 1480 1482 1485 1487 1488 1489 1490 1491 1492 1493 1494 1495 1496 1496 1497 1498 1499 1500 1500 1501 1501 1502 1502 1501 1501 1501 1502 1502 1503 1504 1504 1504 1505 1505 1505 1505 1506 1506 1505 1506 1506 1506
1477 1479 1480 1482 1484 1486 1486 1487 1489 1490 1490 1491 1492 1493 1493 1494 1495 1496 1496 1497 1497 1498 1498 1499 1498 1498 1499 1499 1499 1500 1500 1501 1501 1501 1501 1502 1502 1502 1503 1503 1503 1503 1503
1475 1477 1478 1480 1482 1483 1484 1485 1486 1486 1487 1488 1488 1489 1490 1490 1491 1492 1493 1494 1494 1494 1495 1495 1496 1496 1496 1496 1497 1497 1497 1498 1498 1498 1498 1498 1499 1499 1500 1500 1500 1500 1500
1474 1475 1476 1477 1478 1479 1480 1482 1482 1483 1483 1484 1484 1485 1486 1487 1488 1489 1490 1490 1491 1491 1491 1492 1492 1492 1493 1493 1493 1494 1494 1495 1495 1495 1495 1495 1496 1496 1497 1497 1497 1497 1497
1472 1473 1474 1475 1476 1477 1477 1478 1479 1479 1479 1480 1481 1482 1482 1483 1485 1486 1486 1487 1487 1488 1488 1488 1489 1489 1489 1490 1490 1490 1491 1491 1491 1492 1492 1492 1493 1493 1494 1494 1494 1494 1494
1470 1471 1472 1473 1473 1474 1474 1475 1475 1475 1476 1477 1477 1478 1479 1480 1481 1482 1483 1483 1483 1484 1485 1485 1486 1486 1486 1486 1486 1486 1487 1487 1488 1488 1489 1489 1489 1490 1490 1491 1491 1491 1490
1468 1469 1470 1470 1470 1471 1472 1472 1473 1472 1473 1473 1474 1475 1476 1477 1478 1479 1479 1480 1480 1480 1481 1482 1482 1482 1483 1483 1483 1483 1483 1484 1485 1485 1485 1486 1486 1486 1487 1487 1487 1488 1487
1467 1467 1468 1468 1468 1468 1469 1470 1470 1470 1470 1471 1471 1472 1473 1473 1474 1475 1476 1477 1477 1476 1477 1478 1479 1479 1479 1479 1479 1479 1480 1481 1481 1482 1482 1482 1482 1483 1483 1483 1484 1484 1484
1465 1465 1465 1465 1465 1466 1467 1467 1468 1468 1468 1468 1469 1469 1470 1471 1472 1472 1473 1473 1473 1474 1474 1475 1475 1476 1476 1476 1476 1476 1477 1478 1478 1478 1478 1478 1478 1479 1479 1479 1480 1480 1481
1462 1462 1463 1463 1464 1464 1464 1465 1465 1465 1466 1466 1467 1467 1467 1468 1469 1469 1470 1470 1470 1470 1471 1472 1472 1473 1473 1473 1473 1473 1474 1474 1474 1474 1474 1475 1475 1475 1476 1476 1477 1477 1477
1460 1460 1461 1461 1462 1462 1462 1462 1462 1463 1464 1464 1464 1464 1465 1465 1465 1466 1466 1466 1467 1467 1467 1468 1469 1469 1469 1470 1470 1470 1471 1471 1471 1471 1471 1472 1472 1472 1472 1473 1473 1473 1474
1457 1458 1458 1459 1459 1459 1460 1460 1460 1461 1462 1462 1462 1462 1462 1462 1463 1463 1463 1463 1463 1464 1464 1464 1465 1465 1466 1467 1467 1467 1467 1467 1467 1468 1468 1468 1468 1469 1469 1469 1470 1469 1470
1455 1455 1456 1457 1457 1457 1458 1458 1459 1460 1460 1460 1460 1461 1461 1461 1461 1461 1461 1461 1461 1461 1461 1461 1462 1463 1463 1464 1464 1464 1465 1465 1465 1465 1465 1465 1465 1466 1466 1466 1466 1466 1467
1452 1453 1454 1455 1456 1456 1456 1456 1456 1457 1457 1458 1458 1458 1459 1459 1459 1460 1460 1460 1459 1459 1459 1459 1460 1460 1461 1462 1462 1462 1462 1462 1462 1462 1462 1462 1462 1463 1463 1463 1463 1463 1463
1451 1452 1452 1453 1454 1455 1455 1455 1455 1455 1455 1455 1456 1456 1457 1458 1458 1458 1458 1458 1457 1457 1457 1457 1458 1458 1459 1459 1460 1460 1459 1459 1459 1459 1459 1459 1460 1460 1459 1460 1460 1460 1460
1449 1450 1451 1451 1452 1452 1453 1453 1453 1453 1454 1454 1454 1455 1456 1456 1457 1457 1457 1456 1456 1456 1455 1456 1456 1456 1457 1457 1457 1457 1456 1456 1456 1456 1456 1457 1457 1456 1456 1457 1457 1457 1457
1447 1448 1449 1449 1450 1450 1451 1452 1451 1452 1452 1452 1453 1453 1454 1455 1455 1455 1455 1455 1454 1454 1454 1454 1454 1454 1454 1454 1455 1454 1454 1453 1453 1453 1454 1454 1454 1454 1454 1454 1454 1454 1454
1445 1446 1447 1448 1448 1449 1450 1450 1450 1450 1450 1451 1451 1452 1453 1453 1453 1454 1453 1453 1453 1452 1452 1452 1452 1452 1452 1452 1451 1451 1451 1450 1450 1450 1450 1451 1451 1451 1451 1451 1451 1452 1452
1444 1444 1445 1446 1447 1448 1448 1449 1449 1449 1449 1450 1450 1451 1451 1452 1452 1452 1452 1451 1451 1451 1450 1450 1449 1449 1449 1449 1448 1448 1447 1447 1447 1447 1447 1447 1448 1448 1448 1448 1448 1448 1448
1442 1443 1444 1445 1446 1446 1447 1447 1447 1447 1448 1448 1449 1449 1449 1449 1449 1449 1449 1449 1448 1448 1447 1447 1446 1446 1445 1445 1445 1444 1444 1443 1444 1444 1444 1444 1444 1444 1444 1445 1445 1446 1446
1441 1441 1442 1443 1444 1444 1445 1445 1445 1446 1446 1446 1446 1446 1446 1447 1446 1446 1446 1446 1445 1445 1444 1443 1443 1442 1442 1441 1441 1441 1440 1440 1440 1440 1440 1440 1440 1440 1441 1441 1442 1442 1443
1440 1440 1441 1442 1442 1443 1443 1443 1444 1444 1444 1444 1444 1444 1444 1444 1443 1443 1443 1442 1442 1441 1440 1440 1439 1439 1438 1438 1437 1437 1437 1437 1437 1437 1437 1437 1437 1437 1437 1438 1438 1439 1439
1439 1439 1439 1440 1440 1441 1441 1441 1442 1442 1441 1441 1441 1441 1441 1441 1440 1439 1439 1438 1438 1437 1437 1436 1436 1435 1435 1434 1434 1433 1433 1433 1433 1433 1433 1433 1433 1433 1434 1434 1435 1435 1436